Theta_e
318 317 321 321 322 323 323 329 330 334 332 327 328 321 316 319 320 321 322 321 320 324 324 320 320 319 319 320 319 318 320 324 325 323 322 330 328 325 327 323 327 326 325 331 333 334 337 341 342 341 343 342 342 342 342 341 341 341 340 339 338 334 334 336 337 336 335 335 333 333 334 334 335 335 335 336 336 337 337 337 338 339 340 340 341 340 339 336 335 334 331 330 330 330 329 328 328
322 321 322 321 322 321 325 332 332 337 333 319 320 319 315 320 321 322 325 325 325 324 323 321 321 321 320 320 319 319 320 322 322 323 328 329 326 325 325 324 328 326 326 331 334 334 336 340 341 342 341 342 341 341 342 340 341 341 339 338 335 334 336 336 336 335 334 335 333 333 334 334 335 335 335 335 336 337 337 336 338 339 340 340 340 340 339 337 336 335 334 332 332 331 329 327 326
323 322 320 321 322 324 335 333 329 337 329 315 319 327 320 317 322 327 328 328 328 323 321 321 320 322 321 322 319 319 323 322 321 329 336 328 325 324 323 325 327 328 328 331 335 334 335 338 341 343 340 342 341 341 341 340 341 340 340 337 333 335 336 336 336 335 335 335 335 335 335 336 337 336 336 336 335 337 337 336 338 339 339 340 340 340 339 338 337 336 335 335 335 333 332 330 327
321 324 321 322 325 331 349 339 339 341 324 319 319 325 326 321 326 329 328 327 326 321 320 321 320 320 319 323 320 318 323 323 320 329 336 326 323 322 321 324 326 330 330 332 336 334 335 336 339 342 341 342 340 341 340 340 341 340 340 336 333 336 336 335 336 335 335 336 335 336 336 337 338 337 338 337 336 337 337 336 338 339 339 340 340 340 339 337 336 336 334 334 334 334 334 333 332
321 325 319 321 327 329 341 334 335 334 320 326 317 319 332 329 328 326 327 324 323 322 320 321 321 319 317 322 321 321 324 322 318 321 326 323 322 321 321 323 326 330 332 334 335 335 334 334 338 341 341 340 340 340 340 340 341 340 340 334 332 336 335 335 335 335 336 335 335 336 336 337 338 338 339 338 337 336 336 336 338 340 340 340 339 339 338 336 334 332 330 328 329 331 334 334 334
321 323 319 320 320 318 331 324 321 326 327 330 318 324 335 330 327 325 325 322 322 322 319 319 320 319 320 323 319 320 322 320 320 322 323 322 323 322 321 322 326 329 332 335 335 335 334 335 338 340 341 340 339 340 339 339 340 340 340 334 332 335 335 335 335 335 336 334 335 337 336 336 338 339 339 339 338 337 336 337 338 339 339 339 339 337 335 334 332 330 329 327 325 325 329 332 332
321 321 325 327 321 321 335 324 325 332 325 323 319 324 328 326 323 320 322 321 321 320 318 319 319 319 320 320 318 318 319 321 323 324 324 322 324 323 321 322 326 329 332 334 335 334 334 334 336 339 340 339 339 339 339 339 340 340 340 335 332 335 335 335 335 335 336 334 336 338 336 336 338 339 339 339 339 338 337 338 339 339 339 338 337 336 334 333 331 331 330 329 328 325 323 324 325
321 321 327 337 335 335 339 325 331 334 319 318 320 319 322 324 321 319 322 320 319 320 320 321 320 320 319 317 321 321 318 322 322 321 325 323 324 324 322 322 325 329 332 334 334 334 334 334 335 338 339 339 339 339 339 338 339 340 340 338 333 334 335 336 336 336 335 334 336 338 336 337 338 339 339 339 339 338 337 337 338 338 338 338 336 334 333 332 331 331 330 329 329 327 323 316 313
319 320 326 334 332 335 339 328 326 326 323 322 318 320 322 322 320 320 321 319 319 321 322 322 319 320 321 319 324 323 318 323 321 321 325 322 324 323 322 322 324 328 332 334 335 335 334 335 335 337 338 338 339 339 339 337 339 339 339 339 334 334 335 335 335 336 335 334 337 338 336 337 338 339 339 339 339 338 336 336 337 337 337 337 335 333 332 332 332 331 330 329 328 327 322 311 305
322 321 327 334 331 330 329 326 325 323 326 322 317 321 321 319 319 319 321 319 319 320 321 319 317 320 321 321 324 321 319 322 322 323 323 322 324 322 321 323 325 328 331 334 335 335 335 335 335 336 338 337 338 339 338 337 339 339 339 339 335 333 334 335 336 335 334 334 337 337 336 337 338 338 339 339 339 338 336 335 336 337 336 336 335 334 333 332 331 330 330 329 327 322 314 303 300
331 330 335 340 333 325 320 323 331 329 327 322 321 323 320 318 319 320 321 317 318 320 320 318 319 323 319 321 328 321 319 322 321 322 321 322 322 321 323 324 327 330 331 333 335 336 335 335 335 336 337 337 338 338 338 337 339 338 338 339 335 332 333 335 336 336 333 334 336 336 336 336 337 338 339 339 338 337 336 335 335 335 335 335 334 334 333 332 329 328 328 327 322 312 303 299 298
329 335 348 345 330 324 323 327 330 334 334 325 321 322 318 317 318 318 319 317 317 318 320 319 318 321 319 324 330 319 316 322 322 320 321 322 321 322 324 325 329 331 332 333 335 337 336 335 335 336 336 337 338 338 337 337 338 338 338 339 336 332 332 333 336 335 333 334 334 335 336 336 337 338 339 338 338 337 336 335 334 334 334 334 333 332 330 329 328 327 325 324 320 307 298 298 298
335 337 342 331 325 326 323 325 329 334 333 323 318 319 316 316 318 317 319 319 317 317 318 320 318 318 320 323 326 323 318 320 321 320 319 320 321 322 323 326 329 331 333 334 335 337 336 336 335 335 336 337 337 337 337 337 338 338 338 339 337 335 333 333 335 335 334 335 335 335 335 336 337 338 339 338 338 337 336 335 334 334 334 333 332 330 328 326 326 326 324 323 318 304 298 298 298
334 339 336 320 322 330 323 321 326 325 320 319 321 320 318 316 318 318 317 318 320 319 315 317 317 317 318 318 326 333 322 317 321 320 318 319 321 321 323 328 330 331 332 334 336 337 336 336 335 335 336 337 338 337 337 337 337 338 338 339 338 337 334 333 334 334 335 335 335 335 336 336 337 338 338 338 337 337 336 335 335 335 333 332 331 328 327 325 325 324 323 323 314 300 298 298 298
325 339 341 325 323 327 323 320 324 322 317 319 317 316 319 317 316 318 317 316 320 318 313 313 314 316 317 315 322 326 316 315 320 319 318 319 320 321 321 326 331 332 332 334 336 336 337 336 336 335 335 337 338 338 337 337 337 337 338 338 339 338 336 334 334 334 335 335 335 335 335 336 337 338 338 337 337 337 336 335 335 334 333 332 330 327 326 323 323 322 322 320 308 298 298 298 298
327 340 335 323 320 320 321 322 323 323 322 323 318 314 318 317 315 316 316 315 317 316 314 315 314 314 317 316 317 316 314 317 318 319 319 319 320 320 320 323 329 331 331 333 335 336 336 337 337 336 335 336 337 338 337 337 337 337 337 338 339 338 337 336 335 334 335 335 334 334 335 336 336 338 338 337 337 337 336 335 335 333 332 331 329 327 325 323 321 320 318 314 303 298 298 297 298
331 336 331 323 321 320 322 324 322 321 324 328 322 316 315 316 315 314 313 313 316 317 316 318 314 313 317 318 314 313 315 317 318 320 320 320 321 320 320 323 326 329 328 330 333 335 336 336 337 337 336 335 336 337 338 338 337 338 338 338 339 339 338 337 336 335 335 335 335 334 335 336 337 337 337 337 336 337 336 335 334 333 331 330 328 327 325 323 321 318 315 309 300 298 298 297 298
333 332 326 322 327 328 327 329 324 319 321 322 319 315 313 316 318 315 313 315 318 318 316 315 313 313 314 314 313 312 314 317 319 320 320 321 322 322 322 322 325 327 326 327 329 333 335 335 336 338 338 337 336 337 338 338 338 338 339 339 339 338 338 337 336 335 336 336 335 335 335 336 336 336 337 336 336 336 335 334 333 332 331 329 328 327 325 323 321 318 314 308 299 298 297 297 298
337 332 320 326 336 331 328 330 324 319 318 319 319 315 313 315 316 313 313 317 318 317 316 314 315 315 312 311 312 313 315 317 319 320 321 321 321 322 322 322 325 326 325 325 324 329 333 333 335 336 338 338 337 337 338 338 338 338 338 339 339 338 338 337 337 336 336 337 336 336 335 336 336 336 337 336 335 334 333 333 331 330 330 329 328 327 324 322 320 318 315 308 300 298 297 298 298
332 328 322 336 337 326 326 326 323 320 317 317 318 315 314 316 315 313 314 316 317 317 317 315 315 316 314 313 312 311 315 317 319 321 321 321 321 322 321 321 323 324 323 323 323 326 329 331 333 335 337 339 338 338 338 338 338 338 337 339 339 338 338 338 338 337 337 337 337 336 336 336 335 336 336 336 335 334 332 331 331 330 330 328 327 326 324 321 319 317 315 308 300 298 297 297 298
321 322 328 336 326 321 325 325 323 320 316 315 316 316 315 315 314 314 315 317 316 317 318 316 315 315 315 313 310 309 312 316 319 320 320 320 320 320 320 321 321 323 324 325 324 323 325 328 330 333 336 338 339 339 338 337 337 338 337 338 340 339 337 338 338 337 337 338 337 337 337 337 335 335 335 335 335 334 332 331 331 331 329 328 326 325 323 321 318 317 314 308 301 298 297 297 297
320 323 329 330 321 319 322 325 322 317 315 315 316 316 315 314 314 316 316 316 316 316 316 316 315 314 312 311 309 308 311 314 315 316 318 318 318 318 319 319 320 320 322 323 322 323 325 326 327 331 335 337 338 338 338 337 337 337 337 337 339 340 339 338 338 338 337 338 338 337 337 337 336 335 334 334 334 333 332 332 331 330 329 327 326 325 323 320 318 315 312 309 304 298 297 297 297
321 325 326 327 321 318 321 322 319 317 315 316 317 314 313 314 315 317 316 315 315 315 315 314 314 311 308 308 308 309 311 310 308 308 312 312 313 313 312 313 314 315 317 318 318 321 324 326 328 331 333 336 337 338 338 337 337 337 337 336 336 338 340 340 339 338 337 338 338 337 337 338 337 336 335 334 334 332 332 332 331 330 328 327 326 324 323 321 318 315 312 310 307 300 297 297 297
320 324 325 323 319 320 323 321 321 320 315 315 315 312 312 314 315 316 316 315 315 313 312 310 308 306 305 306 306 307 308 306 305 306 307 307 307 307 308 309 310 311 312 314 315 317 319 322 326 329 332 334 335 337 337 336 336 336 337 337 336 336 338 339 339 338 337 338 338 338 338 337 337 336 336 335 334 333 332 332 330 329 328 326 325 324 323 321 319 317 314 311 309 303 297 297 297
321 324 323 319 317 320 322 320 320 318 314 314 313 312 314 314 313 313 314 314 313 312 311 309 308 306 306 306 306 306 306 305 305 306 307 306 307 307 308 309 310 311 311 312 313 315 317 318 321 324 328 332 334 335 336 336 335 335 336 336 336 335 336 337 338 338 338 338 338 338 338 336 336 336 335 334 334 333 332 331 330 328 327 326 325 324 323 322 320 319 316 312 309 306 299 296 297
321 322 320 316 316 317 317 317 316 314 314 313 312 314 314 312 311 313 316 315 312 313 313 310 311 310 307 307 307 307 307 306 305 305 306 306 307 308 308 309 311 312 312 312 312 314 316 317 318 320 322 328 333 334 335 335 335 335 334 334 334 334 335 337 337 337 337 338 338 338 338 336 336 335 334 334 333 333 332 330 329 328 327 325 325 324 323 323 321 319 317 314 310 307 301 297 297
316 318 316 314 314 315 315 317 315 312 312 313 313 314 314 312 312 315 319 315 311 315 313 310 312 311 307 307 307 305 305 305 304 305 305 305 306 306 306 308 311 313 314 314 313 314 314 316 318 319 320 324 328 332 333 334 334 334 333 333 332 331 332 335 337 337 337 337 337 337 338 336 334 333 332 332 332 330 330 329 328 327 326 326 325 324 324 322 321 320 318 315 312 310 305 301 298
313 314 315 315 314 314 314 315 314 311 312 314 313 315 315 311 313 317 317 314 312 313 312 310 311 310 308 307 306 305 304 304 304 304 304 304 304 304 305 306 309 313 316 315 315 314 314 315 317 319 320 321 324 328 331 332 333 332 332 332 331 331 330 331 335 337 336 336 335 334 336 335 334 332 331 331 330 329 328 327 327 328 326 326 325 324 324 322 321 319 318 316 314 313 311 307 303
313 313 313 317 317 316 315 313 313 312 313 315 314 316 318 315 317 319 314 312 314 312 311 311 309 309 308 307 305 304 303 303 303 303 303 303 303 304 304 305 307 311 315 318 317 317 317 317 319 321 322 323 325 328 330 331 332 332 332 332 332 332 331 331 332 333 333 333 332 332 333 333 334 333 332 332 331 329 329 328 327 327 327 326 325 324 323 322 321 319 317 316 315 315 315 312 308
314 313 312 315 317 320 318 312 312 312 313 315 313 316 325 325 322 319 311 310 314 313 310 310 309 308 307 306 304 303 302 302 302 302 302 302 303 303 304 305 307 310 315 319 320 320 322 323 323 324 324 325 326 328 330 330 331 332 332 332 333 333 333 333 333 333 333 332 332 332 332 332 333 333 332 331 330 329 328 328 327 327 326 325 324 323 323 322 320 319 317 316 315 315 315 314 312
315 312 315 317 316 324 323 312 313 314 313 313 312 316 325 325 322 316 308 309 313 312 310 309 309 307 306 305 303 303 302 301 301 301 301 301 302 303 303 305 307 310 315 318 320 321 323 324 325 326 325 326 327 328 329 329 330 331 331 332 332 333 333 333 334 334 333 333 333 332 333 332 332 332 331 330 329 328 328 327 327 326 325 324 324 323 322 321 320 319 317 316 316 315 315 315 314
322 314 322 325 316 322 325 313 315 315 312 311 311 319 321 319 322 316 308 311 314 311 310 309 308 306 304 304 302 302 302 300 301 300 301 301 301 302 302 304 306 309 313 316 319 321 322 323 324 325 326 326 327 327 328 328 329 329 329 329 330 330 331 331 332 332 332 332 332 332 332 331 331 331 330 329 328 328 327 327 326 325 325 324 323 322 321 320 320 319 318 316 316 315 315 314 313
328 317 322 329 319 319 322 316 316 316 313 312 311 317 319 317 320 316 310 313 313 312 311 307 306 305 302 302 301 301 301 300 300 300 300 300 300 301 302 303 304 307 311 315 318 320 321 321 323 323 324 325 326 327 327 328 328 328 328 328 327 327 327 328 328 328 329 329 329 329 329 329 329 329 328 328 328 327 327 326 326 325 324 323 322 321 321 320 319 318 317 316 316 315 315 314 313
327 319 317 324 321 317 319 318 318 316 315 314 313 314 316 317 317 314 312 313 313 314 311 306 305 303 302 302 301 301 301 300 300 299 299 299 300 300 301 302 303 306 309 312 315 317 319 320 321 321 322 323 324 325 325 325 326 326 325 325 325 325 325 325 325 325 325 325 326 326 326 327 327 327 327 327 327 327 326 326 325 324 324 323 322 321 320 319 319 318 317 316 316 315 314 313 312
327 323 320 322 321 318 318 318 318 317 317 317 317 316 317 318 315 312 311 312 315 313 307 305 304 302 302 301 301 301 300 300 299 299 299 299 299 300 300 301 303 304 306 309 312 314 316 317 319 320 320 321 321 322 322 323 323 323 322 322 322 322 322 322 322 322 322 322 323 323 323 323 324 324 324 324 324 324 324 324 324 323 322 322 321 320 319 319 318 317 317 316 315 314 313 312 311
325 325 325 326 323 320 318 317 318 316 315 318 319 318 320 320 316 313 311 310 313 310 304 304 304 302 302 301 301 301 300 300 299 298 298 298 299 299 300 301 301 303 304 306 309 310 311 313 315 316 317 319 320 321 320 321 321 320 320 320 319 318 318 318 318 318 318 318 318 318 319 319 319 320 320 321 321 321 321 320 320 320 320 320 319 319 318 318 317 316 316 315 314 314 313 311 310
320 319 321 322 320 319 316 316 319 315 315 320 319 318 321 320 316 312 309 310 310 307 305 304 303 302 302 301 301 300 300 299 298 297 297 297 298 298 299 300 301 302 303 304 305 306 306 308 310 310 312 315 317 317 318 318 318 318 317 315 314 314 315 316 315 314 314 314 314 314 314 314 315 315 315 316 316 316 316 316 316 316 316 316 316 316 316 315 315 314 314 313 313 312 312 310 308
315 316 317 319 319 317 314 314 317 314 315 321 317 317 322 320 315 309 307 310 310 307 305 304 303 302 301 301 301 300 300 298 297 297 296 297 297 297 298 298 299 300 300 301 302 303 304 305 306 306 308 310 311 312 314 314 314 314 312 311 311 311 311 311 311 310 310 310 310 310 310 310 310 311 311 311 312 311 311 311 311 311 311 311 311 312 312 313 312 312 312 311 311 310 310 308 306
314 316 317 319 319 318 319 318 315 314 316 324 321 318 321 319 312 308 306 307 306 304 304 304 303 302 301 301 300 300 299 298 297 296 295 296 296 296 297 297 297 297 298 299 300 301 302 303 304 304 306 307 307 309 309 309 309 310 310 308 308 307 306 306 307 307 307 307 306 305 305 305 306 306 307 308 308 308 308 309 308 308 308 308 308 307 308 309 309 309 309 309 308 306 306 306 305
318 319 319 322 320 320 325 323 318 316 315 320 320 317 321 317 310 308 305 304 304 303 303 302 302 302 301 300 300 299 299 298 297 296 294 294 294 295 295 295 296 296 297 297 298 299 300 301 302 303 304 304 305 306 306 306 306 306 306 306 306 305 304 305 306 306 305 305 305 304 304 304 303 303 303 304 304 305 305 305 305 306 306 306 306 306 305 305 305 305 305 305 304 303 304 304 304
324 322 319 322 321 320 324 323 320 320 318 317 316 319 327 322 314 311 306 304 304 303 303 302 301 301 300 299 299 298 297 296 296 295 294 293 293 294 294 294 295 295 295 296 296 297 298 299 300 301 302 303 303 304 304 305 305 305 305 305 305 304 304 304 304 303 304 304 303 303 303 303 303 302 302 302 302 302 302 302 302 303 303 303 304 304 304 304 303 303 302 302 302 301 301 301 301
327 326 321 321 322 321 321 320 319 322 326 318 314 323 335 328 318 312 307 306 305 304 303 303 302 301 300 300 299 298 297 295 294 294 293 292 292 292 293 293 294 294 294 294 295 296 297 298 299 300 301 301 302 302 303 304 304 304 303 302 301 300 300 299 299 299 301 301 301 302 302 303 303 302 302 302 301 301 301 301 301 301 301 301 301 301 302 302 302 302 301 301 300 300 299 298 299
326 326 322 320 319 319 320 320 320 325 329 317 312 322 331 328 320 312 308 309 306 304 304 303 302 301 300 300 299 297 296 295 294 293 291 291 291 291 292 292 292 293 293 293 295 296 296 297 298 299 299 299 300 300 301 302 301 301 300 299 298 297 296 295 297 298 299 299 300 300 300 301 301 301 301 301 301 301 300 300 300 300 300 300 300 300 300 300 300 300 300 300 300 299 298 297 298
329 323 322 323 320 320 321 321 321 323 323 319 319 322 321 324 322 311 308 310 307 305 304 302 301 301 300 299 298 297 296 295 295 293 291 290 290 290 290 291 291 291 292 293 294 294 295 296 297 297 298 298 298 299 299 300 299 299 298 297 296 296 295 295 296 297 298 299 299 299 299 299 299 299 299 299 299 299 299 299 299 299 299 299 299 299 299 298 298 298 298 298 299 299 298 297 296
326 319 320 324 322 323 325 325 323 320 318 322 323 318 318 325 321 310 308 313 311 307 305 303 302 301 300 299 298 296 296 295 294 293 291 290 290 290 290 290 291 291 291 292 292 293 294 295 296 297 296 296 296 297 297 297 297 297 296 296 294 293 293 293 294 295 295 295 295 295 295 295 295 296 297 297 298 298 298 298 298 298 299 298 299 298 298 298 298 297 297 297 298 298 298 297 296
318 315 318 322 321 323 325 325 324 322 321 323 322 318 319 323 320 312 310 314 314 308 304 303 302 301 300 299 297 296 296 295 293 291 290 290 289 289 289 290 290 290 290 291 291 292 293 293 294 294 293 293 294 294 295 294 294 294 293 292 291 290 290 290 291 290 290 290 290 289 289 289 290 290 291 292 293 294 295 296 297 297 297 298 298 298 298 298 297 297 297 297 297 297 297 297 296
313 317 325 327 325 323 324 324 321 323 323 321 322 320 317 321 323 317 312 312 312 308 304 304 303 302 300 298 297 297 296 295 293 291 290 290 289 289 289 289 289 289 289 290 290 290 291 291 292 291 290 290 291 291 291 291 291 290 290 289 289 288 288 288 288 287 287 288 287 287 287 287 287 287 287 287 288 289 290 291 292 293 295 296 296 297 297 297 297 297 297 296 296 296 296 296 296
316 324 328 328 327 324 325 325 322 326 325 319 319 317 313 319 322 317 312 307 307 307 305 304 303 302 300 299 297 296 295 295 294 293 291 289 289 289 288 288 288 288 288 289 289 289 289 289 290 289 288 289 289 289 289 289 288 288 288 287 287 287 287 287 287 287 287 287 287 287 287 287 287 287 287 287 287 287 287 287 288 288 289 290 291 292 293 294 295 296 296 296 296 295 295 295 295
322 325 325 326 326 324 326 326 321 324 322 314 315 315 314 319 318 314 313 307 304 306 305 302 302 301 300 299 297 296 295 295 294 293 291 289 289 289 288 288 288 288 288 288 288 288 288 288 288 288 287 287 288 288 288 287 287 287 287 287 287 287 287 287 287 287 287 287 287 287 287 287 287 287 287 287 287 287 287 287 287 287 287 287 287 288 288 289 290 291 292 293 294 294 295 295 295
319 322 325 327 327 326 330 327 318 319 319 312 311 314 317 321 316 310 308 304 301 304 304 302 301 300 299 298 297 296 295 295 294 293 291 289 289 289 289 288 288 288 288 287 287 288 287 287 287 287 287 287 287 287 287 287 287 287 287 288 287 288 288 288 288 288 287 288 287 287 287 287 287 287 287 287 287 287 287 287 287 287 287 287 287 287 287 287 287 287 288 288 289 291 292 293 294
316 320 322 324 328 329 329 328 321 319 321 314 309 314 322 323 314 304 302 301 300 302 302 301 300 299 298 297 297 296 295 294 293 293 291 289 290 290 289 289 288 288 288 287 287 287 287 287 287 287 287 287 287 287 287 288 288 288 288 288 288 288 288 288 288 288 288 287 287 287 287 287 287 287 287 287 287 287 287 287 287 287 287 287 287 287 287 287 287 287 287 287 287 287 288 289 290
315 315 318 321 324 323 320 321 318 316 319 318 314 318 322 317 307 301 302 301 299 300 300 300 300 298 298 297 296 296 295 294 293 293 291 289 290 290 289 289 288 288 288 287 287 287 287 287 287 287 287 287 288 288 288 288 287 288 288 288 288 288 288 288 288 288 287 287 287 287 287 286 286 286 286 286 286 286 286 286 286 286 286 286 286 286 286 286 286 286 286 287 287 287 287 287 287
315 314 319 319 316 318 320 319 314 313 317 319 317 319 317 312 307 303 302 301 300 300 299 299 299 298 297 297 297 296 295 295 294 293 291 289 290 291 290 289 288 288 288 287 287 287 287 287 287 287 288 288 288 288 288 288 288 288 288 288 288 288 288 288 287 287 287 287 287 286 286 286 286 286 286 286 286 286 285 285 285 285 285 285 285 285 285 285 285 285 286 286 286 286 286 286 286
318 320 320 315 313 318 321 321 319 318 319 318 319 319 317 316 313 305 302 303 302 300 300 299 298 298 298 297 297 297 296 295 295 292 290 289 290 291 290 289 288 288 288 287 287 287 287 288 288 288 288 288 288 288 288 288 288 288 288 288 288 288 288 287 287 287 287 287 287 287 286 286 286 286 286 286 285 285 285 284 284 284 284 284 285 285 284 284 284 284 285 285 285 285 285 285 286
316 319 315 313 318 321 319 319 322 321 319 321 323 320 316 317 317 312 309 306 302 301 300 299 299 298 297 297 297 297 296 295 294 294 291 289 290 291 291 289 288 288 288 288 288 288 288 288 288 288 288 288 288 288 288 288 288 288 288 288 288 288 288 288 288 288 287 287 287 287 286 286 286 286 285 285 285 284 284 284 284 284 284 284 284 284 283 283 283 283 283 284 284 284 284 284 284
311 313 312 313 319 321 320 318 319 322 320 321 324 320 319 319 318 319 317 306 301 302 301 299 299 298 297 297 297 297 296 294 294 294 292 289 289 291 291 290 289 288 288 288 288 288 288 288 288 288 288 288 288 288 288 288 288 288 288 288 288 288 288 288 288 288 288 287 287 287 286 286 286 285 285 285 284 284 284 284 284 284 283 283 283 283 282 282 282 282 282 283 283 283 283 283 283
315 316 316 316 315 317 319 316 316 321 322 323 323 318 321 321 313 315 315 306 301 302 301 300 298 298 298 297 297 296 294 294 294 294 292 290 290 291 290 290 289 289 289 289 289 288 288 288 288 288 288 288 288 288 288 288 288 288 288 288 288 288 288 288 288 288 288 288 287 287 286 286 286 285 284 284 284 284 283 283 283 283 283 282 282 282 282 282 281 282 282 282 282 282 282 283 283
320 321 319 318 318 317 318 316 316 317 318 322 322 317 320 318 307 308 310 304 301 301 300 300 298 299 299 297 296 295 294 294 294 293 291 290 290 290 290 290 290 290 289 289 289 288 288 288 288 288 289 289 289 289 289 289 288 288 288 288 288 288 288 287 287 287 287 287 287 287 286 286 285 285 284 283 283 283 283 282 282 282 282 282 281 281 281 281 281 281 281 282 282 282 282 282 282
Wind_Speed
10 9 7 7 8 5 3 3 2 2 4 2 2 1 2 3 1 1 3 3 1 3 4 2 3 2 1 1 4 4 4 5 5 3 2 5 3 5 17 14 7 11 22 24 24 28 28 28 25 24 22 21 21 20 19 18 16 15 14 13 12 13 13 12 11 10 9 8 7 8 8 8 7 7 7 7 7 6 7 7 7 7 7 7 7 8 7 7 8 9 9 8 9 9 9 9 10
9 8 6 6 6 2 2 3 3 3 5 2 2 2 3 2 1 3 5 4 4 4 2 1 2 2 2 2 1 0 3 5 5 3 3 4 3 7 17 17 10 11 20 23 24 28 29 29 27 25 24 23 22 21 20 19 18 16 16 14 14 14 13 13 12 11 9 9 7 7 7 7 6 6 6 6 6 6 6 6 6 6 6 7 7 7 5 5 6 6 7 6 6 5 6 6 6
9 7 6 4 3 3 1 4 3 1 5 2 3 4 2 1 4 6 8 8 7 5 5 1 1 1 4 4 1 2 3 4 3 3 4 4 3 6 16 18 12 10 18 22 23 28 30 30 28 27 25 24 23 22 21 20 19 17 17 16 16 15 14 14 12 11 10 9 8 7 7 6 6 5 5 5 5 6 6 6 6 6 6 7 7 6 4 4 4 5 4 4 3 3 2 2 2
9 8 8 3 1 4 4 4 2 4 3 2 2 4 2 3 7 7 7 8 7 4 4 2 1 1 3 2 1 1 4 5 4 4 2 4 6 5 14 18 14 12 17 21 23 27 30 30 30 28 26 25 24 23 22 21 20 19 18 17 17 16 15 15 13 12 10 9 9 8 7 6 6 6 6 5 5 6 6 6 6 6 7 7 7 6 4 4 3 4 2 1 2 2 2 3 3
7 6 8 3 2 2 3 3 2 4 2 4 0 5 5 6 6 6 7 7 5 1 1 1 1 2 1 2 2 1 4 3 3 5 3 3 7 6 12 17 15 15 18 21 22 26 29 30 30 29 27 25 24 23 23 22 21 19 18 18 19 18 17 16 15 13 11 11 10 9 7 7 7 7 7 7 6 6 6 7 6 6 7 7 7 5 3 3 2 3 3 4 3 4 4 5 5
5 3 7 6 3 1 3 3 2 0 4 5 2 6 6 6 6 5 6 7 3 2 2 0 1 1 1 3 2 3 4 0 2 5 4 3 7 7 12 16 14 15 18 20 22 25 28 29 30 30 28 25 24 23 23 23 22 20 19 19 19 18 18 17 16 15 13 13 11 10 9 8 8 8 8 9 8 7 7 7 7 7 7 7 6 4 3 2 2 3 5 7 8 7 7 7 7
6 3 4 6 2 2 4 3 3 2 3 5 3 5 6 6 4 2 5 3 2 3 1 1 0 1 2 3 2 4 5 4 2 3 4 5 7 8 13 15 14 15 18 20 21 24 26 29 30 30 29 27 25 24 24 24 23 21 20 20 19 18 18 17 16 16 15 14 13 11 10 9 9 9 9 10 9 9 9 8 8 8 7 6 4 3 2 2 3 3 4 8 11 9 8 9 9
8 3 1 4 2 3 5 2 3 3 1 3 4 5 7 6 2 0 3 1 1 3 1 2 2 1 3 3 2 5 4 6 6 5 6 7 9 10 14 14 14 16 18 20 21 23 25 28 30 30 30 28 26 25 24 24 23 22 21 20 19 19 19 18 17 16 16 16 14 13 12 11 11 10 10 11 11 10 10 10 9 9 9 8 5 4 3 1 1 2 4 9 13 11 9 9 8
6 4 1 4 2 3 3 1 2 3 3 4 4 6 6 4 3 1 1 1 1 2 4 3 2 1 4 4 3 5 3 5 7 6 8 8 10 11 13 14 13 15 18 19 20 22 24 27 30 30 30 29 27 26 25 24 24 23 22 21 20 20 19 18 17 17 17 16 15 13 13 13 12 12 12 12 12 11 11 9 10 10 10 9 7 5 5 5 5 6 6 10 14 13 9 8 7
5 5 2 3 3 3 3 2 2 2 5 4 5 7 5 2 2 1 1 1 1 1 5 2 2 2 3 4 5 3 2 4 4 6 8 9 10 11 13 13 13 14 16 19 20 21 23 26 29 30 30 30 28 27 26 25 25 24 23 22 22 21 21 20 18 18 18 17 16 14 14 13 13 13 13 13 13 12 10 8 9 10 9 8 8 8 9 10 10 8 6 10 14 12 7 6 5
3 4 3 4 4 2 0 3 4 4 6 5 5 8 6 3 2 1 1 2 2 2 3 2 0 3 0 4 4 2 3 6 5 5 7 9 10 12 12 12 13 13 15 16 18 20 21 24 28 30 30 30 29 29 27 26 26 25 24 23 23 23 22 22 20 19 19 18 17 15 15 14 14 14 14 15 14 13 11 9 8 8 8 8 9 10 11 11 10 7 9 13 13 9 5 4 3
2 3 4 4 3 2 3 2 5 6 7 4 4 4 2 3 1 1 2 3 2 2 4 2 1 2 1 4 4 5 6 7 5 5 6 9 9 12 13 13 13 14 14 15 17 18 20 23 27 30 31 31 30 30 28 27 27 27 25 24 24 24 22 22 22 20 20 19 17 16 16 15 14 14 15 15 15 14 12 10 9 9 9 10 11 11 11 11 12 11 13 15 13 9 4 3 3
3 1 4 2 3 2 2 2 4 5 6 2 3 3 1 1 2 3 3 3 2 2 5 6 3 2 0 4 4 7 8 6 3 6 7 8 8 11 14 14 14 14 15 15 17 17 19 22 26 30 31 31 31 31 29 28 28 28 27 25 25 25 23 23 23 22 21 21 19 18 17 16 16 15 16 16 16 15 13 12 11 11 11 11 11 11 11 12 13 14 15 15 13 9 4 3 3
2 3 4 2 1 1 3 1 2 1 3 3 3 4 3 1 3 3 5 3 6 3 3 4 5 2 2 3 5 5 5 6 3 8 7 8 9 11 14 16 16 15 16 17 18 18 18 20 24 28 31 31 31 31 30 29 29 29 28 26 25 25 25 24 23 23 22 22 20 19 19 18 17 16 16 16 16 16 15 13 12 12 12 11 11 10 11 11 13 15 15 14 12 7 4 3 3
3 3 4 3 2 2 3 2 0 4 3 3 2 3 4 4 2 1 4 3 7 4 1 0 4 1 2 2 4 5 4 6 2 7 8 9 10 11 13 17 18 17 17 18 19 19 19 20 22 27 30 32 32 32 31 30 30 29 29 28 27 26 25 24 24 23 23 22 22 21 20 19 17 16 17 17 16 16 15 14 13 12 12 11 11 11 11 11 14 15 15 14 11 6 4 4 4
3 4 5 2 0 2 3 2 2 3 4 4 3 2 3 6 1 0 4 3 4 3 1 2 2 1 3 5 6 5 6 5 3 6 8 10 11 13 13 16 19 18 17 19 21 21 21 21 22 25 29 32 32 32 32 31 30 30 29 28 28 26 26 25 24 23 22 23 22 22 21 19 18 17 18 18 17 17 16 14 13 12 12 12 11 11 11 12 14 14 14 13 9 5 4 4 4
3 4 4 1 2 2 3 4 3 3 5 6 5 4 1 7 3 2 2 2 3 5 2 4 3 1 4 5 6 7 8 5 4 6 8 10 12 13 14 16 19 20 19 20 22 23 23 23 23 25 27 30 32 32 32 31 30 30 30 29 28 27 26 25 24 23 22 22 22 22 21 20 19 19 20 19 18 17 16 14 13 13 13 12 11 11 11 12 14 14 12 11 8 5 5 5 5
4 3 3 1 3 4 5 6 6 3 3 6 4 2 2 6 6 3 4 2 4 6 6 4 4 6 7 10 11 11 9 6 6 7 9 11 12 13 15 17 19 21 21 22 23 24 25 25 25 25 27 29 31 32 32 31 31 31 30 29 28 28 27 26 25 23 23 23 22 22 22 22 21 20 21 20 19 18 17 16 15 14 14 13 12 12 11 12 14 13 12 10 8 6 7 7 6
3 3 2 3 5 5 5 7 5 3 3 6 5 3 3 6 5 3 4 6 6 8 9 3 4 8 8 11 11 10 8 6 8 10 11 13 14 15 17 18 20 22 23 24 25 26 26 26 26 27 28 28 29 31 32 31 31 30 30 30 29 28 27 27 25 24 24 23 22 22 22 23 22 21 22 21 20 19 18 17 16 15 15 15 13 13 12 13 14 14 13 12 9 8 8 8 8
2 3 1 6 6 4 4 6 6 6 4 4 7 2 2 6 4 2 4 7 5 6 9 4 7 9 7 7 7 9 8 6 8 10 13 15 16 17 18 19 20 23 24 25 25 25 27 27 27 28 28 29 29 31 31 31 30 30 30 30 30 29 28 27 26 25 24 23 23 22 23 23 22 22 21 21 20 20 19 18 16 16 16 15 14 13 13 14 15 14 14 13 10 9 9 9 8
2 4 4 6 3 2 6 7 7 6 4 3 4 3 4 7 2 1 4 8 7 6 7 6 8 11 8 7 8 10 8 7 8 9 12 14 17 18 18 19 19 20 20 21 24 26 27 28 28 28 28 28 29 30 31 31 30 29 30 30 30 30 29 28 27 26 25 24 24 23 23 23 22 22 22 22 21 20 18 18 17 17 16 15 15 14 13 14 16 16 16 14 10 10 9 9 9
2 3 6 5 4 3 7 5 5 3 3 3 4 5 5 4 2 2 3 6 8 7 7 6 8 9 7 7 9 9 8 7 7 8 12 14 16 18 20 21 22 22 20 22 25 26 26 28 28 28 28 28 29 30 30 30 29 29 29 30 29 29 29 29 28 26 25 25 25 23 24 24 23 22 22 22 21 20 19 19 19 18 17 17 16 15 15 16 17 18 18 15 11 11 10 10 10
2 4 3 4 4 4 6 4 4 1 1 5 4 4 2 3 6 4 5 10 10 10 7 5 8 7 7 7 7 8 8 7 8 8 9 11 15 17 19 21 23 24 24 27 27 25 25 26 27 28 28 28 29 29 29 29 28 28 28 28 28 28 27 28 29 27 26 26 26 25 25 25 24 23 23 22 21 20 21 21 20 19 18 18 17 16 16 17 18 19 19 18 13 12 12 11 11
3 3 4 4 4 5 7 5 6 4 4 8 3 3 4 5 6 3 7 13 13 12 5 4 7 9 9 7 8 8 9 10 12 13 13 13 14 14 15 17 18 19 22 27 28 25 25 25 26 27 28 29 29 29 29 29 28 28 27 27 27 27 27 27 29 28 27 27 26 26 26 24 24 23 23 22 21 22 22 21 20 20 19 19 18 17 17 18 19 19 20 20 16 14 14 13 13
3 5 4 3 2 6 7 6 8 7 6 7 2 5 9 8 3 2 12 16 13 8 6 7 6 9 10 9 9 8 9 11 14 16 17 18 18 17 18 19 17 15 17 22 24 23 22 22 24 26 28 29 28 28 28 28 28 28 27 26 26 26 26 27 28 27 27 27 27 29 27 24 24 24 22 22 23 23 22 21 20 20 20 19 19 19 19 19 20 20 21 21 18 15 15 14 14
5 5 3 4 5 7 7 7 8 6 4 3 3 9 9 5 2 2 14 14 8 6 8 7 7 10 9 9 8 8 9 12 15 16 17 21 23 24 25 25 22 18 16 16 16 18 18 18 20 23 25 27 27 27 27 27 27 27 27 27 26 25 25 25 27 28 28 27 27 28 26 23 23 23 22 23 23 22 21 21 21 22 21 20 20 20 20 20 20 21 22 23 20 17 16 15 15
4 4 4 5 7 8 5 7 9 4 3 5 6 11 8 3 1 3 11 5 5 9 9 8 10 9 8 8 7 9 10 12 15 17 19 24 26 27 28 28 27 22 18 13 10 11 13 14 15 17 21 23 25 26 26 26 26 26 26 26 26 25 24 24 24 25 26 27 26 27 26 24 23 23 23 24 23 22 22 22 23 23 23 22 21 21 21 21 21 21 22 23 22 19 17 16 16
2 1 5 7 6 8 6 7 9 3 3 6 8 8 6 2 1 7 8 3 8 9 8 9 10 7 7 8 7 9 10 14 18 19 20 21 22 23 25 27 27 24 21 16 9 6 7 10 11 12 16 19 22 24 25 25 24 24 24 23 24 23 23 23 23 23 24 25 25 25 26 24 25 26 26 26 25 25 24 24 25 25 25 23 22 22 22 21 21 21 22 22 22 21 20 19 18
1 2 5 8 7 7 9 5 3 1 2 5 7 3 7 1 6 10 5 7 7 9 8 8 8 6 7 7 7 8 10 15 19 20 19 19 20 22 24 25 25 25 24 20 12 7 5 4 5 7 10 14 18 20 21 22 21 21 20 20 21 21 21 22 22 22 23 25 25 25 26 26 26 26 25 25 26 26 25 25 25 25 25 24 23 23 22 22 21 21 22 22 23 23 22 21 20
2 2 1 6 7 7 8 1 3 2 2 4 4 2 7 6 10 9 4 6 7 9 7 6 6 5 6 6 6 7 10 15 17 19 20 21 22 23 24 25 26 26 26 24 19 15 11 7 4 1 4 8 12 14 16 17 17 17 17 17 17 18 20 22 22 23 24 25 26 26 26 26 24 23 23 24 24 24 24 24 24 24 24 24 23 23 22 22 21 21 21 22 23 23 23 22 22
2 2 1 3 2 5 8 1 1 3 1 3 3 2 6 9 11 7 4 6 7 8 5 6 5 5 6 6 6 6 9 13 15 19 21 22 22 23 25 26 27 28 28 28 26 22 18 14 11 7 4 1 5 8 9 10 10 11 11 12 12 14 16 18 20 21 21 23 23 22 21 21 21 22 22 22 22 22 22 23 23 24 23 23 23 22 22 22 21 21 21 22 22 23 23 23 23
2 1 3 3 2 5 10 4 4 2 2 2 4 2 6 8 11 6 5 7 8 7 5 6 6 6 6 5 7 6 7 12 17 21 23 22 23 24 25 26 28 29 29 29 28 27 24 21 17 14 11 7 4 2 3 3 4 4 4 5 6 8 10 12 14 16 17 18 18 18 19 19 19 20 19 20 21 21 21 21 22 22 22 22 22 21 21 21 21 21 21 21 22 22 23 24 24
3 1 4 3 3 3 7 5 1 1 1 2 2 2 4 6 10 6 7 8 7 7 6 6 6 6 6 5 6 6 6 10 15 21 23 23 23 23 24 25 27 28 29 29 29 29 28 27 23 21 18 14 11 8 5 5 4 3 3 2 2 3 5 6 7 9 11 13 14 15 16 16 17 18 18 19 20 20 20 20 20 20 21 20 20 20 20 20 20 21 21 21 22 22 23 23 23
3 0 3 4 4 3 3 4 4 5 3 1 2 1 6 9 10 7 9 7 6 8 6 6 6 6 6 5 6 6 7 8 10 17 22 22 22 23 24 25 27 29 30 30 30 30 29 28 27 26 24 20 18 15 13 11 10 10 9 9 7 6 5 3 2 1 3 6 8 11 13 14 16 17 18 19 19 20 20 19 20 19 20 20 19 19 19 19 19 20 21 21 21 22 22 23 22
4 3 3 3 3 4 5 4 4 5 4 3 2 2 8 12 10 6 8 6 8 8 6 7 6 6 6 6 6 6 7 8 10 15 19 21 22 23 24 26 28 29 30 30 30 29 29 28 27 26 25 24 23 21 20 18 17 17 17 17 17 16 15 13 12 10 8 6 5 5 7 8 10 13 14 16 16 17 18 18 19 19 19 19 18 18 18 19 19 20 21 21 21 21 21 22 21
7 5 4 4 3 6 6 5 5 1 3 5 4 6 8 11 8 6 8 6 9 7 7 7 5 6 5 6 6 6 7 7 10 15 19 20 22 24 24 26 28 29 30 30 30 30 29 28 27 26 24 22 21 21 21 20 20 20 20 20 21 21 20 19 19 18 17 15 14 12 10 9 8 7 8 9 10 12 13 14 15 15 16 16 17 18 18 19 19 20 20 20 21 21 21 21 20
4 3 2 4 5 7 5 4 6 1 1 6 4 5 7 9 5 6 7 6 8 6 7 6 5 5 5 6 6 6 7 6 10 15 19 21 23 24 25 26 28 29 30 30 31 31 30 29 28 27 25 21 20 19 18 18 19 19 20 21 22 21 19 19 20 20 20 19 17 17 16 15 13 12 11 10 9 9 9 9 10 11 12 13 14 15 16 17 18 19 19 19 19 20 20 20 19
1 1 2 5 5 7 7 4 5 0 3 4 1 1 8 7 4 6 5 6 7 5 6 6 5 5 5 6 6 6 5 5 9 14 19 22 23 24 25 27 29 29 30 30 31 30 30 30 29 28 26 24 23 21 20 19 19 19 20 21 20 20 19 19 19 19 18 17 17 17 16 16 14 13 13 12 12 12 12 12 12 11 11 12 12 13 15 16 16 17 18 18 18 18 19 18 18
2 2 2 5 4 5 7 4 3 2 3 4 2 2 8 5 5 6 6 7 5 5 6 5 4 5 5 5 5 6 5 5 7 10 16 20 21 23 25 26 28 28 29 30 30 30 30 30 29 27 26 25 24 23 22 22 21 19 20 20 20 21 23 21 20 19 18 18 18 18 17 16 15 13 12 11 11 11 11 12 13 13 12 12 12 12 13 14 15 16 16 17 17 16 17 17 18
3 4 2 4 3 1 4 4 4 2 1 3 1 3 6 2 4 6 6 5 6 6 7 6 5 5 5 5 5 5 5 5 6 7 11 16 19 22 24 24 26 28 30 30 30 30 30 30 29 28 26 25 23 22 22 22 21 20 20 20 20 22 22 20 20 20 19 19 19 18 18 17 15 14 14 12 11 11 11 11 11 11 12 12 12 12 13 13 13 14 15 16 15 15 16 16 17
3 5 5 5 4 5 6 4 4 2 2 2 1 3 5 2 1 3 4 4 5 5 6 7 6 5 5 5 6 5 4 4 5 6 8 13 17 20 22 24 26 29 30 29 29 29 30 29 29 28 27 26 23 21 19 18 18 18 18 19 19 21 21 21 21 22 21 20 20 19 18 16 16 15 15 14 14 13 12 12 11 11 11 12 12 12 12 12 12 13 14 14 14 15 16 16 15
4 5 10 10 8 7 5 3 5 4 3 3 3 3 5 3 1 4 3 3 4 4 5 6 5 5 5 5 5 5 4 4 5 7 8 12 15 18 22 25 26 28 27 27 28 29 29 29 29 28 28 27 25 24 21 19 20 20 21 23 24 25 26 25 24 24 23 22 21 19 17 16 15 15 15 15 14 14 14 13 13 12 12 12 12 12 12 12 12 11 12 13 13 14 15 16 16
3 4 8 9 7 5 4 1 2 0 3 3 3 1 5 5 1 5 5 4 4 3 4 4 4 4 4 4 4 4 4 4 6 7 9 12 14 17 21 24 25 26 25 26 28 30 30 30 30 30 29 28 27 25 24 24 26 27 28 29 29 28 27 25 23 23 23 22 20 19 18 17 16 15 15 14 14 13 13 13 13 12 12 12 12 12 12 12 12 11 11 11 11 12 13 15 17
2 4 4 5 5 5 4 4 3 2 3 4 3 2 4 6 3 3 6 6 4 3 3 3 3 3 3 3 3 3 4 4 5 6 7 11 14 16 18 21 23 23 24 27 30 31 31 31 31 31 31 30 29 27 27 27 28 29 29 30 30 29 28 26 25 24 23 21 21 21 20 19 18 17 16 15 14 14 14 13 13 12 11 12 11 11 11 12 11 11 10 10 10 10 11 13 15
5 3 6 5 6 5 4 5 2 1 2 4 3 1 3 6 3 1 4 4 3 3 3 3 2 2 2 3 3 3 4 4 5 5 6 10 13 15 17 20 22 23 25 28 29 30 31 32 32 33 33 32 31 30 30 31 31 31 32 32 32 31 30 29 28 27 27 26 26 26 25 24 23 22 21 20 18 16 16 15 14 13 13 12 12 11 10 10 10 10 10 10 10 9 9 10 12
3 5 6 5 5 5 5 4 3 2 2 4 5 4 2 5 3 2 2 3 4 5 4 4 4 3 2 2 2 3 4 4 4 6 8 10 12 14 17 21 23 24 26 27 29 30 31 32 32 33 34 33 32 32 32 33 32 33 34 33 33 32 31 31 30 31 31 30 31 31 30 29 29 28 28 27 25 23 21 19 17 16 15 14 13 12 11 11 11 11 11 11 10 9 9 9 10
3 5 5 5 5 5 4 2 4 2 4 4 7 8 6 4 4 3 4 2 4 7 5 4 5 4 3 2 1 2 3 3 4 5 8 10 12 14 18 22 23 23 25 27 29 29 30 30 31 33 32 31 31 31 31 32 32 33 33 33 33 32 31 32 32 33 32 32 32 31 30 30 30 30 30 30 30 29 27 25 23 21 20 18 17 16 15 14 13 13 13 12 12 11 11 10 10
4 4 4 3 4 4 4 4 4 0 5 3 3 5 5 5 5 1 2 2 2 7 9 9 9 6 4 3 2 2 3 3 3 4 5 8 11 14 19 21 21 22 25 27 27 28 29 29 30 31 31 30 30 30 30 31 31 32 32 32 32 32 32 32 33 32 31 31 31 30 29 29 29 29 29 29 30 29 28 27 26 25 25 23 22 21 19 18 16 15 15 14 14 13 13 13 12
5 4 5 3 3 3 3 3 0 3 6 3 1 1 2 6 5 1 3 4 3 5 8 11 12 9 6 5 3 2 2 3 3 3 3 6 8 12 16 18 19 22 24 25 26 26 27 28 28 30 30 28 28 29 29 30 30 30 30 30 30 30 30 31 31 30 29 29 29 28 29 28 28 29 28 28 28 27 27 27 26 26 25 24 23 23 22 21 20 20 19 17 16 15 14 14 14
4 4 4 3 1 1 2 4 2 4 6 3 1 2 1 5 2 1 4 5 5 5 5 9 10 9 8 6 4 3 3 2 1 1 2 4 7 11 14 16 18 21 21 23 24 25 26 26 27 29 28 27 27 27 28 29 29 28 28 28 28 28 28 29 28 28 27 27 27 27 27 27 27 27 27 27 25 25 24 24 25 24 24 23 23 22 22 21 21 21 21 21 20 18 17 16 16
4 4 4 4 4 4 4 4 3 4 5 3 2 1 2 3 1 2 4 4 4 1 4 6 6 6 6 5 4 4 3 2 1 1 2 4 8 10 13 15 17 19 20 21 22 23 24 25 25 26 25 24 25 25 26 27 27 26 26 26 26 26 26 26 26 25 25 25 25 25 25 25 26 26 26 26 25 24 24 23 23 23 23 23 23 23 23 22 22 21 21 20 20 20 19 19 18
2 3 4 2 4 5 3 3 5 3 3 3 2 3 4 4 1 3 2 2 4 4 5 7 6 5 5 4 4 4 3 3 3 2 3 5 8 10 12 15 16 18 19 20 21 21 22 23 23 23 23 22 22 23 23 24 23 23 24 24 24 24 24 24 24 23 23 23 23 24 24 23 24 25 25 26 26 26 25 25 24 24 23 23 23 23 24 24 23 23 23 22 21 21 20 20 19
1 2 3 4 4 6 2 2 0 3 2 4 1 2 4 1 0 3 3 3 4 4 4 6 6 5 5 5 5 4 4 4 4 4 4 5 8 9 11 13 14 16 17 18 19 19 20 21 21 21 21 20 20 20 21 21 21 21 21 21 21 21 21 21 21 21 22 22 22 23 23 23 24 25 25 26 26 26 26 26 26 25 25 24 24 24 24 25 25 24 24 24 24 24 23 22 22
5 2 5 3 2 4 3 1 2 3 3 4 0 3 4 2 2 3 2 1 3 3 4 5 5 5 5 6 5 5 5 5 4 4 4 6 7 9 10 12 13 15 15 16 17 17 18 19 19 20 20 19 19 18 18 18 18 18 18 17 18 18 19 19 19 20 21 21 23 23 23 24 24 25 25 26 26 26 26 26 26 26 27 27 27 27 27 27 27 27 26 26 25 25 25 25 24
4 3 3 3 2 1 2 2 2 2 4 4 3 4 3 4 4 1 4 8 8 7 6 6 8 7 6 6 6 5 5 4 4 4 4 6 8 9 10 12 12 13 14 14 15 15 16 17 17 18 18 17 16 15 15 15 15 15 15 14 15 16 16 17 18 19 20 22 23 24 25 25 25 25 25 25 26 27 27 27 27 28 28 29 29 30 30 31 30 30 30 30 29 28 28 28 27
2 0 0 1 2 4 2 2 3 3 4 3 5 5 4 5 5 6 9 11 11 9 8 9 10 9 8 7 6 6 6 5 5 5 5 7 9 10 11 12 12 12 12 12 13 13 14 14 15 15 15 14 14 13 12 12 12 12 12 12 13 13 15 16 17 19 21 22 24 25 26 26 26 26 25 25 26 27 28 28 29 29 30 31 31 32 32 32 32 32 31 31 31 30 30 30 30
2 2 2 1 1 1 1 1 2 3 3 2 3 5 6 4 3 6 8 8 11 14 13 11 10 9 9 8 7 7 6 6 6 5 5 8 11 12 12 11 11 11 11 11 11 11 12 12 12 12 12 11 11 10 9 9 9 9 10 10 12 12 13 15 16 17 19 21 23 25 27 28 27 27 26 26 27 28 29 30 30 31 32 33 34 34 34 33 33 32 32 31 31 30 30 30 31
5 5 5 5 3 2 2 4 1 2 2 4 4 6 7 4 2 4 5 7 11 14 12 10 9 10 10 8 8 8 7 7 7 6 7 10 12 13 12 11 10 10 10 10 10 10 10 10 9 9 8 8 7 6 6 6 6 7 8 8 10 10 10 12 14 16 18 20 22 24 25 27 27 27 26 26 27 28 29 30 32 33 34 35 35 35 35 35 33 32 32 31 30 30 30 31 30
Wind_Direction
327 324 317 311 308 300 307 59 68 319 70 73 310 9 250 222 220 242 277 290 312 259 217 166 135 126 108 176 206 208 186 177 170 129 217 237 288 199 181 179 159 167 181 180 182 187 184 181 185 188 189 190 189 189 191 191 188 192 193 191 184 174 166 168 171 176 176 168 166 152 148 146 144 146 146 148 149 150 147 141 138 142 144 143 136 123 121 117 106 104 102 98 97 94 93 94 95
334 327 319 305 316 338 248 72 91 333 51 73 285 177 260 299 309 220 222 226 215 266 305 164 140 83 57 87 157 152 248 222 191 178 262 262 286 202 184 184 173 168 181 182 182 186 187 184 185 189 190 191 191 190 192 192 191 195 198 195 181 173 172 174 175 182 178 171 170 159 161 156 153 156 154 157 156 158 153 143 142 152 154 153 144 123 122 125 111 111 113 104 99 99 99 97 99
337 333 335 309 316 36 68 44 90 49 70 105 283 242 293 342 232 232 221 222 232 283 329 324 142 125 73 22 45 134 274 265 220 219 284 247 226 205 191 190 180 172 183 185 184 186 189 186 186 189 192 193 192 192 193 193 194 197 200 195 179 174 178 179 180 182 177 175 175 167 169 163 165 169 164 169 167 167 161 153 158 164 162 158 144 124 112 111 103 109 125 129 124 126 130 134 133
335 338 343 335 30 28 59 41 116 113 104 178 287 269 272 205 230 247 238 246 262 310 339 3 2 211 117 342 277 157 278 278 239 197 275 227 202 214 195 192 187 180 186 190 188 187 191 189 187 190 193 194 193 194 195 194 196 199 201 194 181 178 182 185 183 180 180 179 176 171 171 173 182 183 176 179 177 176 171 165 169 167 161 160 146 131 107 94 96 90 98 176 196 216 225 230 236
331 344 355 20 92 33 90 69 101 99 168 185 86 277 255 213 232 254 262 285 281 277 302 56 332 292 123 230 177 166 255 267 274 213 251 241 209 217 192 194 192 185 188 192 191 190 192 191 189 191 194 195 195 196 196 195 197 201 202 193 184 182 185 187 183 181 185 183 177 174 179 186 192 194 185 184 184 181 176 171 171 165 157 151 137 129 110 95 86 56 8 326 304 277 263 256 252
342 356 23 52 94 105 99 80 111 297 223 175 150 261 256 221 224 246 285 307 291 226 206 131 307 328 319 258 194 206 223 237 317 223 241 237 215 213 191 196 195 188 188 191 193 193 194 193 192 192 194 195 196 198 198 197 198 202 203 194 187 186 188 188 185 184 187 186 181 182 190 193 199 201 190 185 184 182 178 173 170 165 155 143 133 127 108 66 40 16 342 325 313 298 279 271 268
5 349 21 57 54 32 90 115 182 250 236 172 186 253 264 243 226 281 310 322 326 307 188 192 330 58 285 295 300 241 225 222 234 225 230 207 214 207 193 201 199 191 188 191 195 196 196 195 194 194 195 196 196 199 200 198 199 204 206 198 191 190 191 191 189 189 190 188 186 188 194 197 205 204 194 188 184 180 178 175 170 169 161 149 155 158 115 29 9 0 342 316 304 298 281 272 273
18 11 11 73 39 26 85 113 221 221 249 205 226 247 255 246 202 204 297 318 295 311 311 291 16 77 275 6 323 261 252 239 245 246 219 198 210 205 199 206 203 193 190 193 195 198 199 198 197 197 197 196 196 200 201 199 200 205 207 202 195 193 194 194 193 194 194 191 190 193 195 200 207 206 198 192 185 180 182 182 177 179 177 170 176 181 172 183 300 300 315 304 296 293 274 266 269
30 31 89 69 73 30 49 347 291 237 261 272 274 258 258 245 178 191 268 309 280 295 286 275 69 213 290 349 283 277 306 258 256 239 206 195 207 205 206 210 210 199 192 195 197 199 201 201 201 199 199 198 197 201 202 199 201 206 208 205 200 196 195 196 196 199 198 194 195 197 199 203 208 207 201 192 187 190 196 194 187 190 191 188 191 206 232 257 273 283 297 291 289 289 272 262 265
34 29 111 60 79 34 4 295 306 263 262 267 277 261 260 247 192 237 101 302 280 291 287 235 105 264 297 315 278 295 316 267 250 217 198 193 201 205 210 212 215 208 199 198 199 202 203 204 203 202 201 200 199 202 203 201 202 207 208 208 204 199 197 197 199 201 200 198 199 200 202 207 210 209 203 194 192 199 208 206 197 200 202 208 218 242 266 282 285 284 275 267 279 287 272 263 263
27 0 96 70 71 49 263 244 286 280 283 297 289 257 235 211 174 356 26 313 275 275 300 88 107 232 334 304 270 273 286 273 231 199 194 189 198 205 210 213 214 214 211 205 202 205 206 207 206 205 204 203 202 203 204 203 205 207 210 210 205 203 201 197 199 202 200 199 202 202 205 211 214 212 205 198 197 203 209 208 207 212 221 232 242 257 272 279 274 260 246 255 276 290 275 265 250
63 342 62 83 123 188 198 223 280 283 303 324 300 279 220 185 139 297 271 296 278 309 283 186 198 170 82 299 267 291 310 294 234 194 197 191 202 208 210 215 215 216 218 216 209 208 209 210 209 208 208 206 205 206 207 204 206 208 211 212 207 206 204 200 200 201 199 200 204 206 208 213 217 215 209 203 203 208 207 208 216 226 237 246 254 263 271 269 259 251 248 259 277 285 276 260 228
100 110 80 91 165 167 179 205 267 295 322 317 248 293 7 194 271 237 195 275 269 338 278 214 159 98 225 263 288 313 326 324 220 195 202 195 206 210 213 215 217 218 218 220 216 212 211 212 212 210 210 209 209 209 210 206 207 210 211 212 210 209 207 204 203 201 200 201 204 208 211 214 216 216 212 207 207 210 211 214 222 232 241 250 261 268 273 265 256 254 256 266 273 272 267 243 218
128 149 106 114 72 129 179 231 278 231 289 284 268 302 346 260 257 197 151 297 267 207 267 201 140 99 266 284 322 306 327 358 196 207 213 202 207 211 216 215 217 220 220 221 220 219 215 214 214 214 212 211 212 212 213 210 209 211 213 213 212 212 209 208 207 203 203 205 206 208 213 216 218 218 214 210 209 212 216 222 229 239 246 256 269 273 275 265 255 256 260 267 266 256 250 231 218
131 131 89 111 30 337 210 245 62 139 236 277 295 314 338 278 222 153 182 240 264 221 285 166 136 214 233 220 276 263 319 353 244 228 225 212 209 209 216 215 216 218 222 223 222 223 220 218 216 215 215 213 214 214 215 214 212 213 215 216 215 214 213 212 211 207 206 208 209 210 214 218 220 220 215 214 215 217 221 228 237 245 251 262 273 275 275 265 256 257 262 266 256 238 233 222 218
112 111 66 82 298 309 227 217 109 127 249 252 277 347 344 292 199 308 231 174 280 289 32 226 182 271 198 190 249 284 339 335 272 249 230 219 214 212 218 215 214 217 222 224 224 226 224 222 219 217 217 216 216 216 217 217 216 216 217 218 217 217 216 215 215 213 210 211 213 214 215 219 220 217 216 218 221 222 225 232 241 249 256 265 273 277 273 265 259 258 263 262 242 223 224 219 223
64 76 69 47 197 215 213 198 169 171 260 270 312 21 26 297 305 277 279 118 281 302 316 253 242 254 199 216 276 320 335 316 272 248 227 222 221 218 221 215 214 218 222 225 226 227 226 225 224 221 220 219 219 218 219 219 219 218 219 221 220 219 218 218 218 217 216 215 217 217 216 219 218 216 217 220 223 226 231 237 244 254 263 267 272 277 271 262 259 260 264 255 228 213 216 217 225
51 75 104 225 198 202 191 186 195 181 275 276 311 28 183 285 305 314 324 334 315 312 294 264 283 278 252 267 287 303 307 293 262 238 225 223 224 224 224 219 217 221 223 225 227 228 228 227 227 225 223 221 221 220 220 221 221 221 221 222 223 222 221 220 220 221 219 218 220 220 219 219 219 218 218 219 222 226 232 238 244 254 261 265 270 276 270 260 260 261 264 253 223 208 213 217 224
81 111 123 230 203 214 196 184 205 203 258 270 294 317 202 252 290 343 305 292 331 319 294 289 297 288 282 284 288 299 299 273 249 231 225 224 225 228 230 227 221 224 226 226 228 228 228 229 229 227 226 224 222 221 220 221 223 223 222 223 224 225 225 223 223 224 222 221 222 222 221 219 220 220 220 219 221 224 230 237 244 253 257 261 268 274 268 259 260 261 263 253 222 207 215 218 224
143 122 141 245 217 239 237 200 216 229 248 283 295 309 200 255 273 322 297 292 301 282 282 302 305 301 303 297 303 308 299 271 247 231 233 236 237 236 238 238 231 233 234 233 232 230 231 231 230 230 229 227 224 223 221 221 222 224 223 223 225 226 226 225 225 225 224 224 224 224 223 222 222 221 221 221 224 228 232 240 246 250 251 257 264 268 265 258 258 259 261 255 224 210 217 220 226
166 140 188 232 193 243 256 223 230 243 216 223 281 332 306 286 267 271 324 318 298 265 252 241 269 292 304 312 323 319 303 279 256 243 249 252 255 253 254 255 252 252 251 247 241 236 234 233 233 231 230 228 226 224 222 221 222 224 224 222 225 227 227 227 226 226 226 226 225 225 223 223 225 224 223 224 227 230 235 243 245 245 248 254 260 263 262 256 255 256 260 257 229 215 220 223 229
160 214 203 202 156 228 268 245 231 229 188 234 295 317 300 304 305 278 304 289 276 268 257 240 253 280 316 329 328 326 315 297 282 273 272 273 278 279 278 276 273 272 269 264 255 247 240 237 238 234 230 228 227 227 224 223 222 225 226 224 224 227 229 228 227 228 227 228 226 226 223 222 225 227 227 228 230 233 239 244 243 245 250 254 257 260 260 256 255 256 261 260 238 223 224 225 232
201 269 245 218 184 219 277 280 252 240 306 278 282 294 304 347 303 269 245 250 252 262 270 280 283 313 7 355 341 342 340 339 344 337 317 308 310 307 304 299 291 285 279 273 267 258 249 242 239 237 234 230 228 228 226 224 223 225 228 228 227 228 229 229 228 228 229 229 227 226 223 221 224 227 228 229 233 239 243 243 242 247 252 254 256 258 260 258 257 258 261 260 247 232 227 228 233
191 258 288 255 201 217 257 272 275 274 259 258 257 325 295 271 283 296 263 258 259 270 307 350 320 359 32 32 18 15 17 16 15 14 15 7 351 344 342 333 317 300 285 278 276 268 258 249 242 239 237 234 230 228 226 225 224 225 227 229 230 231 232 231 229 228 229 229 229 227 225 225 228 229 229 232 240 244 243 242 243 249 252 255 256 258 259 259 259 259 260 260 254 239 230 229 234
192 227 272 282 247 245 263 277 275 272 259 259 272 283 262 239 234 304 269 268 274 287 25 32 12 28 41 49 37 31 31 25 17 15 17 15 9 9 7 360 349 333 303 288 284 276 267 257 248 243 239 236 233 230 227 227 226 225 226 228 230 231 233 234 233 232 230 227 228 226 220 225 231 231 235 241 245 245 243 244 247 251 253 255 256 258 260 261 261 260 260 260 257 244 234 232 235
211 209 256 294 292 283 290 284 268 261 250 244 264 272 271 251 183 254 260 263 295 358 42 29 48 51 44 49 41 36 35 25 15 11 11 13 15 12 7 5 3 357 335 307 288 280 278 267 253 247 243 238 234 233 231 228 228 227 227 228 229 229 231 233 233 232 231 229 230 227 221 225 232 235 243 246 248 249 250 252 253 253 254 256 258 260 262 263 263 262 261 261 258 248 240 238 239
195 195 249 251 273 284 272 264 270 277 247 205 225 268 284 308 74 262 265 265 24 30 31 30 59 59 44 45 38 37 36 27 17 16 15 13 14 8 4 6 8 9 0 341 310 287 285 278 262 251 246 240 234 234 233 231 231 231 231 231 231 231 229 230 230 228 229 229 230 231 227 227 233 240 246 248 250 255 257 258 259 257 255 257 260 261 263 263 263 263 262 262 262 256 251 249 247
172 217 298 274 292 292 254 253 273 291 276 203 188 258 294 7 167 237 260 4 47 47 39 42 60 54 43 42 35 37 33 26 22 25 20 9 7 3 4 8 10 18 22 14 356 314 288 283 273 258 248 241 236 234 234 233 233 234 235 235 236 237 234 233 234 232 233 234 235 236 234 232 236 239 241 244 249 253 255 257 258 257 257 259 260 262 262 261 262 262 260 259 261 260 257 256 255
164 57 324 299 343 317 272 267 279 182 227 195 158 289 306 240 223 241 280 2 27 58 57 51 59 50 44 40 37 38 27 25 26 25 17 8 9 10 12 16 19 26 34 36 30 18 351 307 283 262 248 240 236 233 233 234 235 236 237 239 240 243 242 240 239 238 239 240 241 243 242 242 241 241 243 248 252 253 254 255 256 257 259 260 260 260 260 260 260 259 258 256 256 258 258 259 260
290 29 352 304 352 319 279 356 36 347 217 189 152 280 286 257 246 259 333 9 27 53 59 60 63 53 46 38 38 37 26 26 26 22 15 14 17 19 22 25 31 37 42 47 48 45 41 39 37 345 244 235 233 230 232 234 237 237 238 241 242 243 242 240 240 240 242 242 243 244 244 245 246 249 254 256 256 256 256 256 257 259 260 260 259 259 260 260 260 260 259 256 254 256 259 261 263
314 316 336 332 331 281 292 337 100 321 304 161 140 205 263 276 277 285 25 35 37 51 69 75 66 55 47 37 38 34 28 27 25 23 20 20 22 26 30 33 39 45 49 52 54 56 57 57 59 64 77 173 220 225 231 234 239 242 245 246 246 248 246 245 245 246 248 249 250 250 250 253 255 256 257 258 259 259 258 258 261 263 262 261 261 260 260 260 260 261 261 258 256 256 259 262 264
22 278 296 337 209 265 309 302 182 247 329 102 126 203 267 277 280 295 48 29 23 55 87 78 66 55 46 36 37 32 25 25 25 25 22 23 26 30 34 38 43 49 53 56 59 62 64 65 67 72 74 76 97 143 198 212 230 236 245 249 246 248 249 251 252 253 256 257 259 259 257 258 258 258 259 260 262 261 261 263 266 266 265 263 263 262 261 261 261 262 262 261 259 259 261 264 266
354 207 248 264 205 267 317 319 343 18 11 46 111 235 286 281 275 304 23 9 22 72 90 75 68 56 49 40 36 33 25 22 22 19 18 22 28 33 38 42 47 52 57 61 63 65 66 67 70 72 73 75 80 87 100 107 114 126 143 161 186 216 231 244 252 256 260 262 262 261 259 258 258 259 261 261 261 261 262 266 269 269 268 268 266 264 262 263 263 263 264 264 263 263 264 266 268
304 283 228 247 211 206 287 305 335 26 61 334 348 244 259 271 281 325 358 359 55 88 92 79 71 57 52 46 39 37 32 29 20 11 12 20 29 37 43 47 52 57 60 64 67 69 69 70 72 75 76 78 81 84 89 93 97 97 97 97 96 94 92 86 64 327 291 280 271 268 265 261 257 256 256 256 256 257 259 263 267 267 268 269 267 265 264 263 264 264 266 266 264 264 265 268 271
224 203 198 255 247 227 248 265 298 4 4 304 328 277 262 272 289 341 350 12 73 90 92 83 70 62 56 47 45 38 36 36 21 10 15 24 31 39 45 49 54 58 61 64 68 71 72 73 74 76 78 81 85 88 90 91 93 92 91 88 83 78 76 75 70 63 55 38 12 340 309 290 277 269 264 260 257 257 259 261 262 263 264 265 266 265 265 265 267 267 267 266 264 263 264 267 269
199 192 171 201 247 255 239 239 259 298 318 290 259 257 267 274 296 354 349 23 77 88 84 78 68 67 59 53 48 38 42 34 17 19 26 31 35 41 46 50 55 59 61 63 67 69 70 71 74 74 75 80 86 88 89 89 88 87 86 83 78 75 74 74 70 65 63 59 54 48 38 25 6 341 319 300 285 276 270 268 267 267 267 267 268 269 269 272 272 271 270 267 264 263 263 264 265
146 146 159 216 239 269 254 241 270 189 210 278 245 236 266 272 310 5 347 28 64 64 73 75 67 66 57 58 51 40 44 26 20 29 34 37 41 45 48 52 57 59 59 61 63 64 66 69 71 71 71 76 79 80 83 83 82 82 80 78 76 72 71 71 68 65 64 63 60 58 54 49 42 34 24 11 358 343 327 316 306 298 292 286 281 278 277 277 276 273 270 266 263 262 262 263 263
132 171 266 273 243 261 265 244 280 46 167 264 303 255 272 278 350 15 11 49 46 36 72 76 70 73 61 58 51 42 39 17 26 31 33 37 41 45 48 50 53 54 54 57 60 62 65 68 68 70 72 75 76 78 81 81 82 84 84 83 81 76 72 70 69 67 67 68 66 63 61 57 52 48 40 33 27 20 14 8 1 352 340 328 314 300 291 287 283 278 271 267 263 260 261 262 262
212 163 223 270 246 270 288 292 329 43 161 263 340 311 280 303 27 29 39 63 51 37 63 62 63 72 59 53 48 42 34 20 28 28 29 35 39 44 47 49 51 52 53 56 59 62 64 66 67 69 72 75 77 80 83 84 86 89 90 89 88 84 79 77 77 75 73 72 68 66 64 61 59 57 52 44 38 31 26 20 17 13 7 2 352 338 324 310 299 290 280 273 266 262 262 263 263
187 157 172 253 251 268 284 305 341 31 162 259 268 274 280 305 60 50 43 65 74 58 60 56 51 63 62 58 51 44 36 27 32 30 27 32 37 41 44 47 50 52 53 53 55 59 61 63 66 69 71 73 77 82 85 88 89 89 90 90 91 89 85 84 83 76 71 68 66 64 61 59 59 58 56 52 48 44 39 33 28 22 18 16 12 7 358 344 328 314 302 287 275 269 267 269 267
239 200 199 236 241 215 228 284 328 342 355 359 34 310 289 266 168 97 67 65 68 53 56 57 40 44 58 60 54 42 31 28 37 36 24 28 35 39 43 48 51 52 51 52 55 58 61 64 66 69 71 72 74 79 85 92 93 92 92 90 88 85 78 74 69 62 59 58 57 56 53 51 53 53 53 52 50 48 46 43 39 35 30 26 22 19 14 8 358 344 329 312 298 285 278 281 280
292 234 208 223 233 223 230 318 358 359 338 346 30 338 295 305 218 168 138 69 59 36 46 58 39 31 42 50 46 30 24 30 40 42 31 30 35 40 45 48 51 52 52 55 59 63 65 67 69 70 71 71 73 76 81 86 86 84 83 79 75 71 65 60 58 56 57 58 55 53 49 46 45 46 46 45 44 42 40 40 39 37 37 35 32 28 23 19 14 4 352 337 327 312 294 289 288
312 250 204 213 222 218 220 173 73 281 259 298 44 24 281 302 245 187 157 99 77 50 47 54 44 37 38 40 33 16 19 29 37 40 34 34 36 40 44 47 51 54 56 61 65 67 68 69 70 71 71 71 72 75 78 80 79 78 77 75 72 70 65 61 62 63 63 63 61 57 51 47 44 43 42 39 38 35 33 32 31 31 32 36 38 36 32 27 21 15 7 355 346 336 315 299 294
256 246 151 158 177 189 193 150 144 225 262 316 12 91 271 284 268 193 140 114 91 75 70 64 60 51 41 32 25 21 23 30 40 39 33 35 39 44 48 51 56 59 62 66 67 68 70 71 71 72 72 71 72 74 76 77 78 78 77 76 73 70 68 65 66 67 66 65 63 58 53 49 44 42 40 38 36 34 33 31 27 25 26 28 29 33 35 31 26 19 12 5 354 347 335 314 304
248 215 112 120 143 150 123 107 108 352 2 308 296 116 260 270 278 119 129 141 168 164 163 158 138 115 71 46 28 30 31 34 42 45 40 41 45 53 59 63 65 67 69 70 72 72 73 74 74 74 72 71 72 74 75 76 77 78 77 76 72 70 69 69 69 68 66 65 63 60 56 52 49 46 44 41 38 35 34 32 29 26 24 23 21 23 24 22 20 14 8 5 358 351 349 334 316
220 129 95 71 75 78 73 92 96 29 339 246 217 172 231 272 274 163 176 236 212 181 182 191 182 182 150 87 50 40 38 35 39 48 52 53 58 64 71 72 72 72 75 77 78 78 77 77 77 75 73 72 73 73 74 74 74 74 74 73 71 68 67 67 66 63 61 61 60 57 55 52 50 49 47 46 44 41 39 36 32 29 25 22 18 16 15 11 9 6 0 357 354 349 346 343 332
138 99 60 34 31 42 46 58 79 38 290 234 199 189 191 262 281 196 193 249 184 159 164 199 197 192 183 140 82 57 46 36 34 45 55 64 71 74 76 76 74 76 79 80 81 80 80 80 80 78 76 75 75 74 74 73 72 72 71 71 69 67 65 63 61 57 55 54 53 51 50 48 46 45 44 44 43 42 42 41 38 35 31 25 19 14 8 3 358 354 351 348 346 344 339 337 330
99 83 62 31 340 11 21 358 48 111 261 258 224 202 175 229 270 243 241 306 181 168 171 182 186 185 182 165 135 83 57 45 40 41 55 67 71 72 74 75 75 77 78 79 81 82 82 82 83 82 79 78 77 76 76 74 73 72 71 71 69 66 64 62 59 55 52 51 49 46 45 43 41 39 38 38 37 36 37 38 38 37 35 31 27 22 15 9 3 354 349 345 342 341 338 335 330
79 92 87 65 327 354 353 312 32 232 255 270 259 150 179 237 247 271 289 309 285 226 184 174 175 173 172 171 164 121 72 60 59 55 57 68 71 71 74 76 77 78 78 80 82 83 84 83 83 83 80 79 79 78 77 76 74 73 72 71 69 67 65 62 59 56 53 50 47 44 41 38 36 34 33 32 30 30 30 31 31 31 31 29 27 25 22 19 15 11 7 1 355 348 340 334 330
132 143 128 125 129 45 297 275 277 272 272 287 267 137 244 270 273 251 268 286 285 254 184 166 164 162 165 166 157 128 96 83 77 89 84 81 84 82 83 84 84 85 86 86 87 87 87 85 84 84 82 80 80 78 77 75 74 72 71 69 67 66 63 61 58 54 51 48 44 42 38 35 33 31 29 28 26 25 25 25 25 24 23 22 20 18 18 16 16 15 13 11 8 2 355 345 335
170 158 134 144 152 161 224 231 220 262 286 300 294 163 197 234 266 261 258 291 320 352 124 128 131 143 147 138 134 133 134 152 188 167 126 101 98 98 98 97 96 96 97 96 96 95 93 90 88 87 85 82 79 78 75 73 72 69 67 66 64 62 60 58 55 50 46 42 39 36 33 30 27 24 22 22 21 20 20 19 19 18 16 15 13 12 10 9 9 8 7 7 6 4 1 357 350
213 124 110 162 176 170 213 211 178 195 300 293 230 213 220 195 219 305 313 12 27 52 97 120 132 138 132 137 153 163 174 187 196 184 148 118 113 112 110 107 106 104 103 102 102 102 100 97 94 91 88 85 81 78 75 72 70 67 64 62 60 58 56 53 50 45 41 37 33 30 27 24 21 17 15 14 13 13 13 12 13 12 11 9 8 7 6 4 3 1 0 359 357 356 354 354 351
167 119 180 218 169 138 148 267 73 82 263 267 198 233 288 311 281 343 32 66 64 76 119 142 156 156 152 173 185 184 194 199 199 192 167 138 128 122 117 114 112 108 105 104 104 104 104 102 99 96 92 87 82 78 75 70 66 62 59 56 54 51 49 46 44 39 35 31 27 24 20 17 14 11 8 6 6 6 6 6 5 5 4 3 1 1 360 358 357 355 354 353 352 349 346 346 345
126 175 211 188 117 99 103 241 340 31 244 269 262 212 259 263 256 344 35 186 188 173 175 171 178 178 180 196 198 198 204 204 206 200 178 156 143 132 126 121 117 112 108 106 106 105 104 102 100 97 92 87 83 78 74 69 65 61 57 52 49 45 42 39 36 31 26 21 18 15 11 9 7 5 2 0 359 359 360 359 358 357 356 355 354 353 352 351 349 348 347 345 345 343 340 339 339
126 196 203 120 149 188 98 165 225 252 248 280 295 261 241 213 217 215 207 209 199 191 194 194 196 194 197 204 204 211 210 206 207 202 194 178 162 149 139 132 125 120 115 112 110 107 105 102 99 96 92 89 85 80 77 73 67 63 57 50 44 39 35 31 26 21 16 13 10 7 3 1 360 358 356 355 354 353 352 352 351 350 348 348 347 346 346 345 343 342 341 339 338 338 335 333 333
69 136 340 58 170 179 159 159 174 213 242 267 290 298 272 232 205 186 205 201 180 181 195 200 199 196 199 200 198 204 203 199 198 196 200 187 172 163 152 144 137 131 125 121 119 115 111 107 104 100 97 93 88 82 77 72 65 58 50 43 35 29 24 19 14 9 6 5 2 359 357 354 352 351 350 349 348 347 346 345 344 343 342 341 340 340 340 339 338 337 337 335 334 334 332 329 328
161 179 221 251 219 156 234 231 131 152 195 220 265 280 267 253 196 187 207 194 177 186 193 193 193 193 201 204 197 198 196 197 201 195 194 186 176 170 162 155 150 143 139 136 133 127 120 115 111 106 101 96 89 79 71 63 55 45 36 30 23 17 12 6 1 357 354 354 353 352 350 347 345 344 343 343 342 341 340 339 338 337 336 336 335 335 335 335 334 333 333 332 331 330 328 325 324
165 182 204 200 184 148 238 259 208 128 176 181 212 263 269 260 216 212 216 193 190 194 187 179 184 193 203 207 199 196 194 197 199 192 187 185 181 176 170 167 165 161 157 152 146 137 128 122 116 110 106 100 90 76 61 47 36 26 18 13 8 5 359 353 350 348 346 346 345 345 344 341 339 337 336 336 336 335 334 333 333 332 332 332 331 331 331 331 331 330 329 328 327 326 323 321 320